Погода в Гагарине

Россия / Смоленская область     55°33′11″N   34°59′48″E
темп.,
°C
ветер,
м/с
пор.,
м/с
влажн.,
%
обл.,
%
осадки,
мм/ч
давл.,
гПа
погр.,
м
14 апреля, ср
ср1400:00+11ююв487489 0.0 1019129
03:00+10юв357869 0.0 1018102
06:00+10ююв4118218 0.0 1018326
09:00+12ю587865 0.0 1018485
12:00+16ю566148 0.0 10181284
15:00+16ю566095 0.6 10171189
18:00+14ю3569100 0.4 1017309
21:00+11ю228156 0.4 101813
15 апреля, чт
чт1500:00+10с1184100 0.0 101710
03:00+9ссв3489100 0.0 101760
06:00+8ссв4795100 0.3 1017150
09:00+11св5887100 0.4 1017393
12:00+13св6869100 0.0 1017792
15:00+15св7859100 0.0 10171373
18:00+10св81384100 0.3 1018524
21:00+8св8158899 0.4 1019510
16 апреля, пт
пт1600:00+7св8158899 0.0 1019543
03:00+6св81388100 0.0 1019532
06:00+6св71488100 0.0 1020493
09:00+6всв7148799 0.1 1020577
12:00+9всв7976100 0.2 1021730
15:00+13в7964100 0.2 10211183
18:00+12всв71167100 0.0 10211026
21:00+10всв7157484 0.0 1022664
17 апреля, сб
сб1700:00+8всв61279100 0.1 1024487
03:00+7всв51178100 0.1 1025415
06:00+5всв61374100 0.2 1026450
09:00+7всв71365100 0.2 1027579
12:00+11всв81053100 0.0 1027988
15:00+12всв793794 0.0 10271352
18:00+11всв6104228 0.0 10271042
21:00+7всв512545 0.0 1028325
18 апреля, вс
вс1800:00+5всв512635 0.0 1029320
03:00+4всв512690 0.0 1029302
06:00+3всв513753 0.0 1030321
09:00+8в711571 0.0 1029769
12:00+12в78425 0.0 10291483
15:00+13в67395 0.0 10281862
18:00+12в474716 0.0 1028628
21:00+7в356411 0.0 102966